YO2LDK-13 Weather Reports


Display with metric or nautical units.
time (UTC)temp
F
wind
direction
speed
MPH
gust
MPH
rain 1hr
in
rain 24hr
in
rain mn
in
humidity
%
barometer
mb
20260510144519 81 264 0.0 0.0 0.00 0.00 0.00 35 1001.0
20260510144019 80 34 2.0 2.0 0.00 0.00 0.00 34 1001.4
20260510143519 78 0 2.0 2.0 0.00 0.00 0.00 36 1001.7
20260510143019 78 294 2.0 2.0 0.00 0.00 0.00 37 1001.7
20260510142519 79 278 4.0 4.0 0.00 0.00 0.00 36 1001.7
20260510142019 79 72 2.0 2.0 0.00 0.00 0.00 37 1001.4
20260510141520 78 276 2.0 2.0 0.00 0.00 0.00 36 1001.7
20260510141019 78 276 0.0 0.0 0.00 0.00 0.00 37 1001.7
20260510140519 78 300 3.0 3.0 0.00 0.00 0.00 37 1001.7
20260510140020 79 288 2.0 2.0 0.00 0.00 0.00 37 1001.7
20260510135521 78 283 0.0 0.0 0.00 0.00 0.00 38 1001.7
20260510135020 78 283 2.0 2.0 0.00 0.00 0.00 38 1001.7
20260510134519 79 12 0.0 0.0 0.00 0.00 0.00 37 1001.7
20260510134019 79 12 0.0 0.0 0.00 0.00 0.00 38 1001.7
20260510133523 78 8 0.0 0.0 0.00 0.00 0.00 39 1001.7
20260510133019 78 46 1.0 1.0 0.00 0.00 0.00 37 1001.7
20260510132520 78 46 0.0 0.0 0.00 0.00 0.00 38 1002.0
20260510132019 79 46 0.0 0.0 0.00 0.00 0.00 38 1002.0
20260510131519 79 46 0.0 0.0 0.00 0.00 0.00 36 1002.0
20260510131019 79 46 0.0 0.0 0.00 0.00 0.00 38 1002.4
20260510130521 78 46 0.0 0.0 0.00 0.00 0.00 38 1002.4
20260510130020 78 36 0.0 0.0 0.00 0.00 0.00 37 1002.4
20260510125520 78 30 0.0 0.0 0.00 0.00 0.00 38 1002.4
20260510125019 79 30 0.0 0.0 0.00 0.00 0.00 37 1002.4
20260510124519 78 30 0.0 0.0 0.00 0.00 0.00 37 1002.4
20260510124021 78 30 0.0 0.0 0.00 0.00 0.00 38 1002.4
20260510123519 78 42 2.0 2.0 0.00 0.00 0.00 36 1002.4
20260510123019 79 41 0.0 0.0 0.00 0.00 0.00 36 1002.7
20260510122521 78 36 1.0 1.0 0.00 0.00 0.00 34 1002.7
20260510122020 78 288 2.0 2.0 0.00 0.00 0.00 35 1002.7
20260510121519 78 288 1.0 1.0 0.00 0.00 0.00 35 1002.4
20260510121019 78 283 2.0 2.0 0.00 0.00 0.00 36 1002.7
20260510120520 79 276 3.0 3.0 0.00 0.00 0.00 36 1002.7
20260510120020 80 42 3.0 4.0 0.00 0.00 0.00 34 1002.7
20260510115519 80 265 0.0 0.0 0.00 0.00 0.00 34 1002.7
20260510115019 82 261 2.0 2.0 0.00 0.00 0.00 32 1002.7
20260510114521 81 24 2.0 2.0 0.00 0.00 0.00 34 1002.7
20260510114020 80 300 2.0 2.0 0.00 0.00 0.00 34 1003.0
20260510113520 79 61 3.0 3.0 0.00 0.00 0.00 35 1003.0
20260510113020 81 36 0.0 0.0 0.00 0.00 0.00 33 1003.0
20260510112519 81 288 2.0 2.0 0.00 0.00 0.00 33 1003.0
20260510112021 80 49 2.0 2.0 0.00 0.00 0.00 35 1003.0
20260510111520 80 49 0.0 0.0 0.00 0.00 0.00 35 1003.0
20260510111019 79 78 3.0 4.0 0.00 0.00 0.00 36 1003.0
20260510110519 78 60 0.0 0.0 0.00 0.00 0.00 40 1003.4
20260510110019 79 292 2.0 2.0 0.00 0.00 0.00 39 1003.4
20260510105520 78 36 0.0 0.0 0.00 0.00 0.00 39 1003.7
20260510105020 78 39 2.0 2.0 0.00 0.00 0.00 40 1003.4
20260510104519 79 39 3.0 4.0 0.00 0.00 0.00 38 1003.7
20260510104020 78 34 0.0 0.0 0.00 0.00 0.00 39 1003.7
20260510103520 78 24 0.0 0.0 0.00 0.00 0.00 41 1003.4
20260510103020 79 35 2.0 2.0 0.00 0.00 0.00 39 1003.7
20260510102519 79 0 0.0 0.0 0.00 0.00 0.00 40 1003.7
20260510102019 79 42 2.0 2.0 0.00 0.00 0.00 39 1003.7
20260510101520 78 18 2.0 2.0 0.00 0.00 0.00 39 1003.7
20260510101020 77 45 0.0 0.0 0.00 0.00 0.00 44 1004.1
20260510100519 77 45 2.0 2.0 0.00 0.00 0.00 46 1004.1
20260510100020 78 348 0.0 0.0 0.00 0.00 0.00 43 1004.1
20260510095519 77 30 0.0 0.0 0.00 0.00 0.00 45 1004.1
20260510095020 77 30 2.0 2.0 0.00 0.00 0.00 46 1004.1
20260510094519 77 282 0.0 0.0 0.00 0.00 0.00 47 1004.4
20260510094019 78 282 4.0 4.0 0.00 0.00 0.00 46 1004.4
20260510093519 78 312 0.0 0.0 0.00 0.00 0.00 48 1004.4
20260510093019 78 324 0.0 0.0 0.00 0.00 0.00 47 1004.4
20260510092519 77 299 0.0 0.0 0.00 0.00 0.00 47 1004.7
20260510092020 76 288 0.0 0.0 0.00 0.00 0.00 50 1004.4
20260510091519 77 266 2.0 2.0 0.00 0.00 0.00 49 1004.7
20260510091019 77 42 0.0 0.0 0.00 0.00 0.00 49 1004.7
20260510090522 76 36 2.0 2.0 0.00 0.00 0.00 50 1004.7
20260510090019 76 36 2.0 2.0 0.00 0.00 0.00 51 1004.7
20260510085519 75 288 0.0 0.0 0.00 0.00 0.00 53 1004.7
20260510085019 75 288 3.0 3.0 0.00 0.00 0.00 52 1004.7
20260510084519 74 300 0.0 0.0 0.00 0.00 0.00 51 1005.1
20260510084020 75 318 2.0 2.0 0.00 0.00 0.00 54 1005.1
20260510083519 75 48 0.0 0.0 0.00 0.00 0.00 53 1004.7
20260510083019 75 30 0.0 0.0 0.00 0.00 0.00 53 1004.7
20260510082520 74 30 0.0 0.0 0.00 0.00 0.00 54 1005.1
20260510082019 74 54 2.0 2.0 0.00 0.00 0.00 55 1005.1
20260510081519 73 330 0.0 0.0 0.00 0.00 0.00 56 1005.1
20260510081019 73 42 3.0 3.0 0.00 0.00 0.00 55 1005.1
20260510080520 72 294 2.0 2.0 0.00 0.00 0.00 58 1005.1
20260510080019 72 36 3.0 3.0 0.00 0.00 0.00 59 1005.1
20260510075519 72 282 2.0 2.0 0.00 0.00 0.00 59 1005.1
20260510075020 72 12 0.0 0.0 0.00 0.00 0.00 59 1005.1
20260510074519 71 270 3.0 3.0 0.00 0.00 0.00 60 1005.1
20260510074019 71 288 0.0 0.0 0.00 0.00 0.00 60 1005.1
20260510073520 71 300 0.0 0.0 0.00 0.00 0.00 62 1005.1
20260510073019 71 292 2.0 2.0 0.00 0.00 0.00 63 1005.1
20260510072519 70 306 2.0 2.0 0.00 0.00 0.00 64 1005.1
20260510072019 70 42 0.0 0.0 0.00 0.00 0.00 65 1005.1
20260510071520 69 48 2.0 2.0 0.00 0.00 0.00 64 1005.1
20260510071019 69 330 2.0 2.0 0.00 0.00 0.00 65 1005.1
20260510070519 69 288 0.0 0.0 0.00 0.00 0.00 67 1005.1
20260510070021 68 42 2.0 2.0 0.00 0.00 0.00 67 1005.1
20260510065523 67 310 0.0 0.0 0.00 0.00 0.00 69 1005.1
20260510065019 67 336 0.0 0.0 0.00 0.00 0.00 68 1005.1
20260510064519 67 62 0.0 0.0 0.00 0.00 0.00 69 1005.1
20260510064019 66 288 2.0 2.0 0.00 0.00 0.00 71 1005.1
20260510063519 65 288 1.0 1.0 0.00 0.00 0.00 72 1005.4
20260510063019 65 283 0.0 0.0 0.00 0.00 0.00 73 1005.1
20260510062519 65 54 1.0 1.0 0.00 0.00 0.00 72 1005.1
20260510062021 65 54 0.0 0.0 0.00 0.00 0.00 72 1005.4
20260510061520 64 54 2.0 2.0 0.00 0.00 0.00 74 1005.1
20260510061019 64 54 0.0 0.0 0.00 0.00 0.00 75 1005.4
20260510060519 63 283 0.0 0.0 0.00 0.00 0.00 77 1005.4
20260510060019 63 283 1.0 1.0 0.00 0.00 0.00 78 1005.4
20260510055519 62 283 0.0 0.0 0.00 0.00 0.00 79 1005.4
20260510055019 61 282 2.0 2.0 0.00 0.00 0.00 81 1005.4
20260510054520 60 282 2.0 2.0 0.00 0.00 0.00 83 1005.4
20260510054019 59 282 2.0 2.0 0.00 0.00 0.00 84 1005.1
20260510053520 58 282 0.0 0.0 0.00 0.00 0.00 85 1005.1
20260510053020 58 288 2.0 2.0 0.00 0.00 0.00 86 1005.1
20260510052519 57 312 2.0 2.0 0.00 0.00 0.00 87 1005.1
20260510052019 57 312 1.0 1.0 0.00 0.00 0.00 88 1005.1
20260510051520 56 318 2.0 2.0 0.00 0.00 0.00 89 1005.1
20260510051020 56 318 3.0 3.0 0.00 0.00 0.00 90 1005.4
20260510050519 56 318 0.0 0.0 0.00 0.00 0.00 89 1005.4
20260510050019 56 318 0.0 0.0 0.00 0.00 0.00 90 1005.4
20260510045519 55 318 2.0 2.0 0.00 0.00 0.00 90 1005.4
20260510045020 55 318 2.0 2.0 0.00 0.00 0.00 90 1005.1
20260510044519 54 318 2.0 2.0 0.00 0.00 0.00 91 1005.4
20260510044020 53 318 0.0 0.0 0.00 0.00 0.00 91 1005.4
20260510043520 53 330 0.0 0.0 0.00 0.00 0.00 91 1005.1
20260510043020 53 330 2.0 2.0 0.00 0.00 0.00 91 1005.4
20260510042519 52 330 0.0 0.0 0.00 0.00 0.00 92 1005.4
20260510042019 52 330 0.0 0.0 0.00 0.00 0.00 92 1005.1
20260510041521 51 330 0.0 0.0 0.00 0.00 0.00 93 1005.1
20260510041019 51 330 0.0 0.0 0.00 0.00 0.00 94 1005.1
20260510040519 50 330 0.0 0.0 0.00 0.00 0.00 94 1005.1
20260510040019 50 330 0.0 0.0 0.00 0.00 0.00 94 1005.4
20260510035519 50 330 0.0 0.0 0.00 0.00 0.00 94 1005.1
20260510035019 50 330 0.0 0.0 0.00 0.00 0.00 94 1005.1
20260510034519 50 330 0.0 0.0 0.00 0.00 0.00 95 1005.1
20260510034019 50 330 0.0 0.0 0.00 0.00 0.00 95 1005.1
20260510033520 50 330 0.0 0.0 0.00 0.00 0.00 95 1005.1
20260510033020 50 330 0.0 0.0 0.00 0.00 0.00 94 1005.1
20260510032519 50 330 0.0 0.0 0.00 0.00 0.00 94 1005.1
20260510032019 51 330 0.0 0.0 0.00 0.00 0.00 94 1005.4
20260510031519 51 330 0.0 0.0 0.00 0.00 0.00 94 1005.1
20260510031020 51 330 0.0 0.0 0.00 0.00 0.00 93 1005.1
20260510030521 51 330 0.0 0.0 0.00 0.00 0.00 93 1005.1
20260510030020 51 330 0.0 0.0 0.00 0.00 0.00 93 1005.1
20260510025519 51 330 0.0 0.0 0.00 0.00 0.00 93 1005.1
20260510025019 51 330 0.0 0.0 0.00 0.00 0.00 94 1005.1
20260510024519 52 330 0.0 0.0 0.00 0.00 0.00 93 1005.1
20260510024019 52 330 0.0 0.0 0.00 0.00 0.00 93 1005.1
20260510023519 52 330 0.0 0.0 0.00 0.00 0.00 92 1005.1
20260510023019 53 330 0.0 0.0 0.00 0.00 0.00 91 1005.1
20260510022522 53 330 0.0 0.0 0.00 0.00 0.00 92 1005.1
20260510022021 53 330 0.0 0.0 0.00 0.00 0.00 92 1005.1
20260510021519 53 330 0.0 0.0 0.00 0.00 0.00 92 1005.1
20260510021019 53 330 0.0 0.0 0.00 0.00 0.00 91 1005.1
20260510020519 54 330 0.0 0.0 0.00 0.00 0.00 91 1005.1
20260510020019 54 330 0.0 0.0 0.00 0.00 0.00 90 1005.1
20260510015521 55 330 0.0 0.0 0.00 0.00 0.00 89 1005.1
20260510015020 55 330 0.0 0.0 0.00 0.00 0.00 88 1005.1
20260510014519 56 330 0.0 0.0 0.00 0.00 0.00 87 1005.1
20260510014020 56 330 2.0 2.0 0.00 0.00 0.00 85 1005.1
20260510013519 56 48 0.0 0.0 0.00 0.00 0.00 84 1005.1
20260510013021 56 48 0.0 0.0 0.00 0.00 0.00 85 1005.1
20260510012519 57 48 0.0 0.0 0.00 0.00 0.00 84 1005.1
20260510012019 58 48 0.0 0.0 0.00 0.00 0.00 82 1005.1
20260510011519 58 48 0.0 0.0 0.00 0.00 0.00 82 1005.1
20260510011020 58 48 0.0 0.0 0.00 0.00 0.00 81 1005.1
20260510010519 59 48 0.0 0.0 0.00 0.00 0.00 81 1005.1
20260510010021 59 48 0.0 0.0 0.00 0.00 0.00 81 1005.1
20260510005519 59 48 0.0 0.0 0.00 0.00 0.00 80 1005.1
20260510005019 59 48 0.0 0.0 0.00 0.00 0.00 80 1005.1
20260510004519 59 48 0.0 0.0 0.00 0.00 0.00 80 1005.1
20260510004020 58 48 0.0 0.0 0.00 0.00 0.00 81 1004.7
20260510003520 58 48 0.0 0.0 0.00 0.00 0.00 82 1005.1
20260510003021 58 48 0.0 0.0 0.00 0.00 0.00 83 1005.1
20260510002519 58 48 0.0 0.0 0.00 0.00 0.00 84 1004.7
20260510002020 58 48 0.0 0.0 0.00 0.00 0.00 84 1004.7
20260510001521 58 48 0.0 0.0 0.00 0.00 0.00 84 1005.1
20260510001019 59 48 0.0 0.0 0.00 0.00 0.00 82 1005.1
20260510000519 59 48 0.0 0.0 0.00 0.00 0.00 81 1005.1
20260510000019 59 48 0.0 0.0 0.00 0.00 0.00 82 1005.1
20260509235520 59 48 0.0 0.0 0.00 0.00 0.00 81 1005.1
20260509235019 59 48 0.0 0.0 0.00 0.00 0.00 81 1005.1
20260509234520 59 48 0.0 0.0 0.00 0.00 0.00 81 1005.1
20260509234019 59 48 0.0 0.0 0.00 0.00 0.00 81 1005.1
20260509233520 59 48 2.0 2.0 0.00 0.00 0.00 81 1005.4
20260509233019 59 48 0.0 0.0 0.00 0.00 0.00 81 1005.4
20260509232519 59 48 0.0 0.0 0.00 0.00 0.00 82 1005.1
20260509232019 58 48 1.0 1.0 0.00 0.00 0.00 83 1005.4
20260509231519 58 48 0.0 0.0 0.00 0.00 0.00 84 1005.1
20260509231019 58 48 0.0 0.0 0.00 0.00 0.00 84 1005.1
20260509230519 58 48 0.0 0.0 0.00 0.00 0.00 84 1005.4
20260509230019 58 48 0.0 0.0 0.00 0.00 0.00 84 1005.4
20260509225519 58 48 0.0 0.0 0.00 0.00 0.00 84 1005.4
20260509225019 58 48 0.0 0.0 0.00 0.00 0.00 83 1005.4
20260509224519 59 48 0.0 0.0 0.00 0.00 0.00 83 1005.4
20260509224020 58 48 1.0 1.0 0.00 0.00 0.00 83 1005.4
20260509223520 59 48 0.0 0.0 0.00 0.00 0.00 83 1005.4
20260509223019 59 48 0.0 0.0 0.00 0.00 0.00 83 1005.4
20260509222519 58 48 0.0 0.0 0.00 0.00 0.00 82 1005.4
20260509222020 58 48 2.0 2.0 0.00 0.00 0.00 82 1005.1
20260509221520 58 48 0.0 0.0 0.00 0.00 0.00 83 1005.4
20260509221019 58 48 0.0 0.0 0.00 0.00 0.00 83 1005.4
20260509220520 58 48 0.0 0.0 0.00 0.00 0.00 83 1005.4
20260509220020 58 48 0.0 0.0 0.00 0.00 0.00 83 1005.4
20260509215519 58 48 0.0 0.0 0.00 0.00 0.00 83 1005.4
20260509215019 58 48 0.0 0.0 0.00 0.00 0.00 84 1005.4
20260509214521 58 48 0.0 0.0 0.00 0.00 0.00 84 1005.4
20260509214019 58 48 0.0 0.0 0.00 0.00 0.00 84 1005.8
20260509213519 58 48 0.0 0.0 0.00 0.00 0.00 84 1005.4
20260509213021 58 48 0.0 0.0 0.00 0.00 0.00 85 1005.8
20260509212519 58 288 0.0 0.0 0.00 0.00 0.00 86 1005.8
20260509212020 58 288 0.0 0.0 0.00 0.00 0.00 86 1005.8
20260509211520 58 288 0.0 0.0 0.00 0.00 0.00 85 1005.8
20260509211019 59 288 0.0 0.0 0.00 0.00 0.00 85 1005.4
20260509210520 59 288 0.0 0.0 0.00 0.00 0.00 85 1005.8
20260509210020 59 288 0.0 0.0 0.00 0.00 0.00 85 1005.8
20260509205521 59 288 0.0 0.0 0.00 0.00 0.00 85 1005.8
20260509205019 59 288 0.0 0.0 0.00 0.00 0.00 85 1005.8
20260509204519 59 288 0.0 0.0 0.00 0.00 0.00 84 1005.8
20260509204019 60 288 0.0 0.0 0.00 0.00 0.00 83 1005.4
20260509203519 60 288 0.0 0.0 0.00 0.00 0.00 83 1005.8
20260509203021 60 288 0.0 0.0 0.00 0.00 0.00 83 1005.8
20260509202519 60 288 0.0 0.0 0.00 0.00 0.00 83 1005.8
20260509202019 61 288 0.0 0.0 0.00 0.00 0.00 82 1005.8
20260509201520 61 288 0.0 0.0 0.00 0.00 0.00 82 1005.8
20260509201019 61 288 0.0 0.0 0.00 0.00 0.00 82 1005.8
20260509200519 61 288 0.0 0.0 0.00 0.00 0.00 82 1005.8
20260509200019 62 288 0.0 0.0 0.00 0.00 0.00 81 1005.8
20260509195520 62 288 0.0 0.0 0.00 0.00 0.00 81 1005.8
20260509195021 62 288 0.0 0.0 0.00 0.00 0.00 82 1005.8
20260509194519 62 288 0.0 0.0 0.00 0.00 0.00 81 1005.8
20260509194019 62 288 2.0 2.0 0.00 0.00 0.00 80 1006.1
20260509193519 62 288 0.0 0.0 0.00 0.00 0.00 80 1006.1
20260509193019 62 288 0.0 0.0 0.00 0.00 0.00 79 1005.8
20260509192519 63 288 0.0 0.0 0.00 0.00 0.00 79 1006.1
20260509192019 63 288 0.0 0.0 0.00 0.00 0.00 78 1005.8
20260509191519 63 288 0.0 0.0 0.00 0.00 0.00 78 1005.4
20260509191019 63 288 0.0 0.0 0.00 0.00 0.00 78 1005.4
20260509190519 63 288 0.0 0.0 0.00 0.00 0.00 77 1005.4
20260509190019 64 288 0.0 0.0 0.00 0.00 0.00 76 1005.4
20260509185519 64 288 0.0 0.0 0.00 0.00 0.00 75 1005.4
20260509185020 65 288 0.0 0.0 0.00 0.00 0.00 74 1005.4
20260509184519 65 288 0.0 0.0 0.00 0.00 0.00 74 1005.4
20260509184020 65 288 0.0 0.0 0.00 0.00 0.00 73 1005.1
20260509183519 66 288 0.0 0.0 0.00 0.00 0.00 72 1005.1
20260509183020 66 288 0.0 0.0 0.00 0.00 0.00 71 1005.1
20260509182519 66 288 0.0 0.0 0.00 0.00 0.00 70 1005.1
20260509182020 66 288 0.0 0.0 0.00 0.00 0.00 70 1005.1
20260509181519 67 288 0.0 0.0 0.00 0.00 0.00 69 1004.7
20260509181020 67 288 0.0 0.0 0.00 0.00 0.00 68 1004.7
20260509180521 67 288 0.0 0.0 0.00 0.00 0.00 67 1004.7
20260509180019 68 288 0.0 0.0 0.00 0.00 0.00 67 1004.7
20260509175520 68 288 0.0 0.0 0.00 0.00 0.00 65 1005.1
20260509175020 69 288 0.0 0.0 0.00 0.00 0.00 64 1004.7
20260509174519 69 288 2.0 2.0 0.00 0.00 0.00 64 1004.4
20260509174019 69 288 0.0 0.0 0.00 0.00 0.00 63 1004.7
20260509173520 69 288 0.0 0.0 0.00 0.00 0.00 61 1004.4
20260509173020 70 292 0.0 0.0 0.00 0.00 0.00 60 1004.7
20260509172521 70 292 0.0 0.0 0.00 0.00 0.00 59 1004.7
20260509172029 70 288 0.0 0.0 0.00 0.00 0.00 58 1004.4
20260509171520 71 288 2.0 2.0 0.00 0.00 0.00 57 1004.4
20260509171020 71 288 0.0 0.0 0.00 0.00 0.00 56 1004.4
20260509170520 71 288 2.0 2.0 0.00 0.00 0.00 55 1004.4
20260509170021 72 270 0.0 0.0 0.00 0.00 0.00 52 1004.4
20260509165521 73 210 0.0 0.0 0.00 0.00 0.00 49 1004.1
20260509165019 73 210 0.0 0.0 0.00 0.00 0.00 48 1004.4
20260509164520 74 210 0.0 0.0 0.00 0.00 0.00 47 1004.1
20260509164020 74 210 0.0 0.0 0.00 0.00 0.00 46 1004.1
20260509163519 74 210 0.0 0.0 0.00 0.00 0.00 45 1004.4
20260509163020 74 210 0.0 0.0 0.00 0.00 0.00 45 1004.1
20260509162039 75 210 0.0 0.0 0.00 0.00 0.00 45 1004.1
20260509161519 74 210 0.0 0.0 0.00 0.00 0.00 45 1004.1
20260509161019 75 210 0.0 0.0 0.00 0.00 0.00 44 1004.4
20260509160519 75 210 0.0 0.0 0.00 0.00 0.00 44 1004.1
20260509160019 75 210 0.0 0.0 0.00 0.00 0.00 43 1004.1
20260509155519 76 210 0.0 0.0 0.00 0.00 0.00 42 1004.1
20260509155020 76 210 0.0 0.0 0.00 0.00 0.00 42 1004.1
20260509154519 76 180 0.0 0.0 0.00 0.00 0.00 42 1004.1
20260509154019 77 180 0.0 0.0 0.00 0.00 0.00 41 1004.1
20260509153520 77 180 0.0 0.0 0.00 0.00 0.00 39 1004.1
20260509153019 78 180 0.0 0.0 0.00 0.00 0.00 37 1004.1
20260509152519 78 180 0.0 0.0 0.00 0.00 0.00 39 1004.1
20260509152020 78 180 0.0 0.0 0.00 0.00 0.00 38 1004.1
20260509151520 79 204 0.0 0.0 0.00 0.00 0.00 38 1004.1
20260509151019 79 204 0.0 0.0 0.00 0.00 0.00 39 1004.1
20260509150519 80 65 0.0 0.0 0.00 0.00 0.00 37 1004.1
20260509150020 79 65 0.0 0.0 0.00 0.00 0.00 37 1004.1
20260509145519 79 65 0.0 0.0 0.00 0.00 0.00 38 1004.1
20260509145019 79 138 0.0 0.0 0.00 0.00 0.00 39 1004.1